| time (UTC) | temp C | wind direction | speed KPH | gust KPH | rain 1hr cm | rain 24hr cm | rain mn cm | humidity % | barometer mb |
| 20260508065416 | 3 | 99 | 0.0 | 3.2 | 0.00 | 0.00 | 0.00 | 87 | 1011.1 |
| 20260508064914 | 3 | 198 | 0.0 | 4.8 | 0.00 | 0.00 | 0.00 | 87 | 1011.0 |
| 20260508064411 | 3 | 166 | 0.0 | 4.8 | 0.00 | 0.00 | 0.00 | 87 | 1010.9 |
| 20260508063909 | 3 | 174 | 0.0 | 3.2 | 0.00 | 0.00 | 0.00 | 86 | 1011.0 |
| 20260508063406 | 3 | 122 | 3.2 | 3.2 | 0.00 | 0.00 | 0.00 | 85 | 1010.8 |
| 20260508062903 | 3 | 123 | 3.2 | 4.8 | 0.00 | 0.00 | 0.00 | 85 | 1010.7 |
| 20260508062401 | 3 | 125 | 3.2 | 4.8 | 0.00 | 0.00 | 0.00 | 85 | 1010.8 |
| 20260508061858 | 3 | 120 | 3.2 | 4.8 | 0.00 | 0.00 | 0.00 | 86 | 1010.7 |
| 20260508061355 | 3 | 123 | 3.2 | 4.8 | 0.00 | 0.00 | 0.00 | 86 | 1010.7 |
| 20260508060851 | 3 | 113 | 3.2 | 4.8 | 0.00 | 0.00 | 0.00 | 87 | 1010.7 |
| 20260508060349 | 3 | 88 | 3.2 | 4.8 | 0.00 | 0.00 | 0.00 | 88 | 1010.8 |
| 20260508055844 | 3 | 234 | 3.2 | 3.2 | 0.00 | 0.00 | 0.00 | 88 | 1010.9 |
| 20260508055342 | 3 | 41 | 1.6 | 3.2 | 0.00 | 0.00 | 0.00 | 87 | 1010.8 |
| 20260508054838 | 3 | 100 | 3.2 | 3.2 | 0.00 | 0.00 | 0.00 | 88 | 1010.7 |
| 20260508054336 | 3 | 104 | 3.2 | 4.8 | 0.00 | 0.00 | 0.00 | 88 | 1010.7 |
| 20260508053832 | 3 | 95 | 3.2 | 4.8 | 0.00 | 0.00 | 0.00 | 88 | 1010.8 |
| 20260508053330 | 3 | 97 | 3.2 | 3.2 | 0.00 | 0.00 | 0.00 | 88 | 1010.9 |
| 20260508052827 | 3 | 55 | 0.0 | 3.2 | 0.00 | 0.00 | 0.00 | 87 | 1011.0 |
| 20260508052324 | 3 | 93 | 3.2 | 3.2 | 0.00 | 0.00 | 0.00 | 85 | 1011.0 |
| 20260508051820 | 3 | 63 | 0.0 | 3.2 | 0.00 | 0.00 | 0.00 | 82 | 1010.9 |
| 20260508051316 | 3 | 122 | 3.2 | 3.2 | 0.00 | 0.00 | 0.00 | 82 | 1011.1 |
| 20260508050812 | 3 | 118 | 0.0 | 1.6 | 0.00 | 0.00 | 0.00 | 81 | 1011.1 |
| 20260508050310 | 3 | 112 | 1.6 | 3.2 | 0.00 | 0.00 | 0.00 | 80 | 1011.0 |
| 20260508045805 | 4 | 113 | 3.2 | 3.2 | 0.00 | 0.00 | 0.00 | 80 | 1011.1 |
| 20260508045306 | 4 | 110 | 3.2 | 4.8 | 0.00 | 0.00 | 0.00 | 80 | 1011.0 |
| 20260508044801 | 5 | 110 | 3.2 | 4.8 | 0.00 | 0.00 | 0.00 | 79 | 1010.9 |
| 20260508044257 | 5 | 104 | 4.8 | 4.8 | 0.00 | 0.00 | 0.00 | 81 | 1011.2 |
| 20260508043753 | 5 | 76 | 0.0 | 3.2 | 0.00 | 0.00 | 0.00 | 81 | 1011.2 |
| 20260508043251 | 5 | 96 | 3.2 | 3.2 | 0.00 | 0.00 | 0.00 | 80 | 1011.5 |
| 20260508042747 | 5 | 105 | 1.6 | 3.2 | 0.00 | 0.00 | 0.00 | 79 | 1011.2 |
| 20260508042245 | 5 | 135 | 0.0 | 4.8 | 0.00 | 0.00 | 0.00 | 77 | 1010.9 |
| 20260508041741 | 5 | 142 | 6.4 | 8.0 | 0.00 | 0.00 | 0.00 | 75 | 1011.2 |
| 20260508041238 | 5 | 275 | 4.8 | 8.0 | 0.00 | 0.00 | 0.00 | 76 | 1011.2 |
| 20260508040734 | 5 | 143 | 6.4 | 8.0 | 0.00 | 0.00 | 0.00 | 76 | 1011.2 |
| 20260508040232 | 5 | 228 | 0.0 | 4.8 | 0.00 | 0.00 | 0.00 | 77 | 1011.2 |
| 20260508035729 | 5 | 137 | 3.2 | 6.4 | 0.00 | 0.00 | 0.00 | 77 | 1011.0 |
| 20260508035226 | 5 | 122 | 4.8 | 6.4 | 0.00 | 0.00 | 0.00 | 78 | 1011.1 |
| 20260508034723 | 5 | 194 | 0.0 | 6.4 | 0.00 | 0.00 | 0.00 | 80 | 1011.0 |
| 20260508034220 | 4 | 126 | 6.4 | 6.4 | 0.00 | 0.00 | 0.00 | 77 | 1010.8 |
| 20260508033717 | 4 | 109 | 3.2 | 3.2 | 0.00 | 0.00 | 0.00 | 79 | 1010.9 |
| 20260508033216 | 4 | 120 | 3.2 | 3.2 | 0.00 | 0.00 | 0.00 | 79 | 1010.8 |
| 20260508032713 | 4 | 69 | 1.6 | 3.2 | 0.00 | 0.00 | 0.00 | 78 | 1010.7 |
| 20260508032209 | 5 | 66 | 0.0 | 1.6 | 0.00 | 0.00 | 0.00 | 76 | 1010.8 |
| 20260508031706 | 5 | 103 | 0.0 | 3.2 | 0.00 | 0.00 | 0.00 | 72 | 1010.6 |
| 20260508031203 | 5 | 117 | 4.8 | 4.8 | 0.00 | 0.00 | 0.00 | 72 | 1010.6 |
| 20260508030659 | 4 | 121 | 3.2 | 4.8 | 0.00 | 0.00 | 0.00 | 74 | 1010.8 |
| 20260508030157 | 3 | 118 | 3.2 | 3.2 | 0.00 | 0.00 | 0.00 | 75 | 1010.6 |
| 20260508025653 | 3 | 116 | 3.2 | 3.2 | 0.00 | 0.00 | 0.00 | 75 | 1010.6 |
| 20260508025150 | 3 | 103 | 0.0 | 1.6 | 0.00 | 0.00 | 0.00 | 74 | 1010.5 |
| 20260508024646 | 3 | 120 | 3.2 | 3.2 | 0.00 | 0.00 | 0.00 | 74 | 1010.3 |
| 20260508024143 | 3 | 100 | 3.2 | 3.2 | 0.00 | 0.00 | 0.00 | 79 | 1010.4 |
| 20260508023639 | 2 | 106 | 1.6 | 3.2 | 0.00 | 0.00 | 0.00 | 83 | 1010.2 |
| 20260508023137 | 3 | 92 | 1.6 | 3.2 | 0.00 | 0.00 | 0.00 | 83 | 1010.3 |
| 20260508022632 | 3 | 108 | 1.6 | 3.2 | 0.00 | 0.00 | 0.00 | 82 | 1010.2 |
| 20260508022130 | 3 | 29 | 3.2 | 4.8 | 0.00 | 0.00 | 0.00 | 82 | 1010.1 |
| 20260508021626 | 3 | 73 | 1.6 | 3.2 | 0.00 | 0.00 | 0.00 | 81 | 1010.2 |
| 20260508021121 | 4 | 34 | 0.0 | 3.2 | 0.00 | 0.00 | 0.00 | 80 | 1010.2 |
| 20260508020620 | 4 | 59 | 1.6 | 3.2 | 0.00 | 0.00 | 0.00 | 77 | 1010.2 |
| 20260508020117 | 3 | 105 | 1.6 | 3.2 | 0.00 | 0.00 | 0.00 | 76 | 1010.3 |
| 20260508015614 | 3 | 88 | 1.6 | 3.2 | 0.00 | 0.00 | 0.00 | 77 | 1010.5 |
| 20260508015111 | 4 | 102 | 0.0 | 1.6 | 0.00 | 0.00 | 0.00 | 77 | 1010.3 |
| 20260508014607 | 4 | 61 | 1.6 | 3.2 | 0.00 | 0.00 | 0.00 | 74 | 1010.1 |
| 20260508014104 | 4 | 92 | 1.6 | 3.2 | 0.00 | 0.00 | 0.00 | 73 | 1010.0 |
| 20260508013600 | 5 | 103 | 0.0 | 3.2 | 0.00 | 0.00 | 0.00 | 72 | 1010.0 |
| 20260508013057 | 5 | 80 | 1.6 | 3.2 | 0.00 | 0.00 | 0.00 | 70 | 1010.0 |
| 20260508012554 | 6 | 57 | 1.6 | 4.8 | 0.00 | 0.00 | 0.00 | 68 | 1009.8 |
| 20260508012052 | 6 | 27 | 1.6 | 8.0 | 0.00 | 0.00 | 0.00 | 65 | 1010.0 |
| 20260508011550 | 6 | 4 | 4.8 | 8.0 | 0.00 | 0.00 | 0.00 | 67 | 1009.9 |
| 20260508011047 | 6 | 8 | 3.2 | 6.4 | 0.00 | 0.00 | 0.00 | 69 | 1009.9 |
| 20260508010543 | 5 | 352 | 3.2 | 6.4 | 0.00 | 0.00 | 0.00 | 73 | 1009.9 |
| 20260508010041 | 5 | 32 | 1.6 | 3.2 | 0.00 | 0.00 | 0.00 | 75 | 1009.9 |
| 20260508005537 | 6 | 42 | 1.6 | 3.2 | 0.00 | 0.00 | 0.00 | 71 | 1009.7 |
| 20260508005034 | 6 | 42 | 3.2 | 4.8 | 0.00 | 0.00 | 0.00 | 68 | 1009.6 |
| 20260508004530 | 6 | 68 | 1.6 | 3.2 | 0.00 | 0.00 | 0.00 | 68 | 1009.7 |
| 20260508004027 | 6 | 67 | 1.6 | 3.2 | 0.00 | 0.00 | 0.00 | 66 | 1009.7 |
| 20260508003524 | 6 | 83 | 1.6 | 3.2 | 0.00 | 0.00 | 0.00 | 65 | 1009.5 |
| 20260508003021 | 7 | 82 | 0.0 | 3.2 | 0.00 | 0.00 | 0.00 | 63 | 1009.5 |
| 20260508002517 | 7 | 56 | 1.6 | 3.2 | 0.00 | 0.00 | 0.00 | 61 | 1009.7 |
| 20260508002015 | 7 | 70 | 1.6 | 3.2 | 0.00 | 0.00 | 0.00 | 61 | 1009.6 |
| 20260508001510 | 8 | 33 | 0.0 | 3.2 | 0.00 | 0.00 | 0.00 | 58 | 1009.3 |
| 20260508001007 | 8 | 22 | 0.0 | 3.2 | 0.00 | 0.00 | 0.00 | 58 | 1009.2 |
| 20260508000503 | 8 | 17 | 0.0 | 4.8 | 0.00 | 0.00 | 0.00 | 58 | 1009.6 |
| 20260508000000 | 8 | 15 | 3.2 | 3.2 | 0.00 | 0.00 | 0.00 | 56 | 1009.3 |
| 20260507235456 | 8 | 347 | 0.0 | 1.6 | 0.00 | 0.00 | 0.00 | 58 | 1009.3 |
| 20260507234954 | 8 | 326 | 0.0 | 4.8 | 0.00 | 0.00 | 0.00 | 57 | 1009.2 |
| 20260507234450 | 8 | 31 | 1.6 | 4.8 | 0.00 | 0.00 | 0.00 | 56 | 1009.5 |
| 20260507233949 | 8 | 14 | 0.0 | 3.2 | 0.00 | 0.00 | 0.00 | 55 | 1009.1 |
| 20260507233444 | 8 | 35 | 0.0 | 9.7 | 0.00 | 0.00 | 0.00 | 55 | 1009.1 |
| 20260507232942 | 8 | 9 | 0.0 | 9.7 | 0.00 | 0.00 | 0.00 | 55 | 1009.2 |
| 20260507232438 | 8 | 356 | 0.0 | 3.2 | 0.00 | 0.00 | 0.00 | 54 | 1009.1 |
| 20260507231936 | 9 | 17 | 0.0 | 3.2 | 0.00 | 0.00 | 0.00 | 53 | 1009.3 |
| 20260507231432 | 9 | 333 | 4.8 | 6.4 | 0.00 | 0.00 | 0.00 | 51 | 1009.0 |
| 20260507230929 | 10 | 23 | 8.0 | 9.7 | 0.00 | 0.00 | 0.00 | 51 | 1009.0 |
| 20260507230426 | 9 | 333 | 6.4 | 9.7 | 0.00 | 0.00 | 0.00 | 52 | 1009.2 |
| 20260507225926 | 10 | 322 | 3.2 | 9.7 | 0.00 | 0.00 | 0.00 | 53 | 1009.1 |
| 20260507225423 | 10 | 357 | 3.2 | 9.7 | 0.00 | 0.00 | 0.00 | 51 | 1009.0 |
| 20260507224919 | 10 | 335 | 3.2 | 12.9 | 0.00 | 0.00 | 0.00 | 52 | 1009.1 |
| 20260507224415 | 10 | 319 | 1.6 | 8.0 | 0.00 | 0.00 | 0.00 | 51 | 1009.0 |
| 20260507223912 | 11 | 313 | 4.8 | 8.0 | 0.00 | 0.00 | 0.00 | 49 | 1009.1 |
| 20260507223408 | 10 | 340 | 4.8 | 8.0 | 0.00 | 0.00 | 0.00 | 50 | 1009.0 |
| 20260507222905 | 10 | 341 | 4.8 | 8.0 | 0.00 | 0.00 | 0.00 | 50 | 1008.9 |
| 20260507222402 | 10 | 13 | 8.0 | 11.3 | 0.00 | 0.00 | 0.00 | 52 | 1009.1 |
| 20260507221859 | 10 | 3 | 4.8 | 8.0 | 0.00 | 0.00 | 0.00 | 52 | 1009.1 |
| 20260507221355 | 10 | 1 | 3.2 | 9.7 | 0.00 | 0.00 | 0.00 | 53 | 1009.1 |
| 20260507220851 | 10 | 318 | 1.6 | 8.0 | 0.00 | 0.00 | 0.00 | 51 | 1009.1 |
| 20260507220349 | 11 | 353 | 4.8 | 8.0 | 0.00 | 0.00 | 0.00 | 50 | 1009.0 |
| 20260507215845 | 10 | 348 | 1.6 | 6.4 | 0.00 | 0.00 | 0.00 | 51 | 1009.2 |
| 20260507215342 | 10 | 0 | 0.0 | 4.8 | 0.00 | 0.00 | 0.00 | 51 | 1009.0 |
| 20260507214839 | 10 | 352 | 3.2 | 6.4 | 0.00 | 0.00 | 0.00 | 53 | 1009.1 |
| 20260507214337 | 10 | 342 | 1.6 | 6.4 | 0.00 | 0.00 | 0.00 | 53 | 1009.2 |
| 20260507213832 | 10 | 10 | 3.2 | 4.8 | 0.00 | 0.00 | 0.00 | 52 | 1009.3 |
| 20260507213329 | 11 | 324 | 1.6 | 9.7 | 0.00 | 0.00 | 0.00 | 52 | 1009.1 |
| 20260507212826 | 10 | 319 | 3.2 | 12.9 | 0.00 | 0.00 | 0.00 | 51 | 1009.2 |
| 20260507212322 | 10 | 1 | 6.4 | 11.3 | 0.00 | 0.00 | 0.00 | 51 | 1009.1 |
| 20260507211818 | 11 | 329 | 3.2 | 6.4 | 0.00 | 0.00 | 0.00 | 49 | 1009.3 |
| 20260507211315 | 11 | 329 | 1.6 | 4.8 | 0.00 | 0.00 | 0.00 | 49 | 1009.1 |
| 20260507210812 | 10 | 23 | 1.6 | 11.3 | 0.00 | 0.00 | 0.00 | 50 | 1009.3 |
| 20260507210309 | 10 | 324 | 6.4 | 9.7 | 0.00 | 0.00 | 0.00 | 49 | 1009.3 |
| 20260507205805 | 10 | 323 | 4.8 | 11.3 | 0.00 | 0.00 | 0.00 | 48 | 1009.1 |
| 20260507205306 | 12 | 322 | 1.6 | 16.1 | 0.00 | 0.00 | 0.00 | 48 | 1009.2 |
| 20260507204758 | 11 | 341 | 3.2 | 12.9 | 0.00 | 0.00 | 0.00 | 46 | 1009.0 |
| 20260507204256 | 11 | 347 | 9.7 | 22.5 | 0.00 | 0.00 | 0.00 | 47 | 1009.0 |
| 20260507203754 | 11 | 320 | 3.2 | 11.3 | 0.00 | 0.00 | 0.00 | 47 | 1009.3 |
| 20260507203251 | 10 | 332 | 3.2 | 14.5 | 0.00 | 0.00 | 0.00 | 47 | 1009.1 |
| 20260507202748 | 11 | 8 | 4.8 | 12.9 | 0.00 | 0.00 | 0.00 | 48 | 1009.3 |
| 20260507202243 | 11 | 284 | 1.6 | 6.4 | 0.00 | 0.00 | 0.00 | 47 | 1009.2 |
| 20260507201738 | 11 | 280 | 8.0 | 12.9 | 0.00 | 0.00 | 0.00 | 46 | 1009.3 |
| 20260507201235 | 11 | 284 | 4.8 | 12.9 | 0.00 | 0.00 | 0.00 | 46 | 1009.1 |
| 20260507200732 | 12 | 295 | 3.2 | 8.0 | 0.00 | 0.00 | 0.00 | 46 | 1009.2 |
| 20260507200228 | 11 | 275 | 3.2 | 9.7 | 0.00 | 0.00 | 0.00 | 50 | 1009.5 |
| 20260507195724 | 11 | 254 | 6.4 | 9.7 | 0.00 | 0.00 | 0.00 | 46 | 1009.6 |
| 20260507195222 | 12 | 320 | 4.8 | 16.1 | 0.00 | 0.00 | 0.00 | 45 | 1009.5 |
| 20260507194719 | 11 | 328 | 4.8 | 11.3 | 0.00 | 0.00 | 0.00 | 48 | 1009.5 |
| 20260507194215 | 11 | 351 | 4.8 | 8.0 | 0.00 | 0.00 | 0.00 | 46 | 1009.5 |
| 20260507193711 | 11 | 238 | 8.0 | 14.5 | 0.00 | 0.00 | 0.00 | 47 | 1009.5 |
| 20260507193208 | 11 | 261 | 4.8 | 8.0 | 0.00 | 0.00 | 0.00 | 47 | 1009.8 |
| 20260507192704 | 11 | 264 | 12.9 | 19.3 | 0.00 | 0.00 | 0.00 | 46 | 1009.7 |
| 20260507192201 | 11 | 313 | 4.8 | 11.3 | 0.00 | 0.00 | 0.00 | 45 | 1009.7 |
| 20260507191657 | 11 | 313 | 3.2 | 9.7 | 0.00 | 0.00 | 0.00 | 47 | 1009.9 |
| 20260507191154 | 11 | 315 | 9.7 | 11.3 | 0.00 | 0.00 | 0.00 | 47 | 1009.6 |
| 20260507190651 | 11 | 311 | 9.7 | 11.3 | 0.00 | 0.00 | 0.00 | 47 | 1009.8 |
| 20260507190150 | 11 | 348 | 3.2 | 11.3 | 0.00 | 0.00 | 0.00 | 48 | 1009.8 |
| 20260507185648 | 11 | 277 | 4.8 | 11.3 | 0.00 | 0.00 | 0.00 | 46 | 1010.0 |
| 20260507185144 | 11 | 356 | 4.8 | 8.0 | 0.00 | 0.00 | 0.00 | 50 | 1009.9 |
| 20260507184642 | 11 | 280 | 6.4 | 14.5 | 0.00 | 0.00 | 0.00 | 45 | 1010.1 |
| 20260507184140 | 11 | 256 | 19.3 | 19.3 | 0.00 | 0.00 | 0.00 | 45 | 1010.0 |
| 20260507183636 | 11 | 290 | 4.8 | 11.3 | 0.00 | 0.00 | 0.00 | 46 | 1010.1 |
| 20260507183133 | 11 | 305 | 4.8 | 6.4 | 0.00 | 0.00 | 0.00 | 49 | 1009.9 |
| 20260507182629 | 10 | 332 | 4.8 | 9.7 | 0.00 | 0.00 | 0.00 | 47 | 1010.2 |
| 20260507182126 | 10 | 332 | 3.2 | 12.9 | 0.00 | 0.00 | 0.00 | 48 | 1010.2 |
| 20260507181622 | 11 | 321 | 3.2 | 11.3 | 0.00 | 0.00 | 0.00 | 46 | 1010.3 |
| 20260507181118 | 11 | 198 | 6.4 | 11.3 | 0.00 | 0.00 | 0.00 | 45 | 1010.2 |
| 20260507180615 | 11 | 241 | 9.7 | 14.5 | 0.00 | 0.00 | 0.00 | 47 | 1010.1 |
| 20260507180112 | 11 | 291 | 6.4 | 17.7 | 0.00 | 0.00 | 0.00 | 44 | 1010.3 |
| 20260507175608 | 11 | 273 | 3.2 | 14.5 | 0.00 | 0.00 | 0.00 | 43 | 1010.3 |
| 20260507175106 | 11 | 277 | 8.0 | 16.1 | 0.00 | 0.00 | 0.00 | 47 | 1010.2 |
| 20260507174603 | 11 | 328 | 3.2 | 17.7 | 0.00 | 0.00 | 0.00 | 47 | 1010.4 |
| 20260507174100 | 11 | 246 | 8.0 | 8.0 | 0.00 | 0.00 | 0.00 | 45 | 1010.5 |
| 20260507173557 | 11 | 228 | 3.2 | 8.0 | 0.00 | 0.00 | 0.00 | 49 | 1010.6 |
| 20260507173054 | 12 | 312 | 6.4 | 17.7 | 0.00 | 0.00 | 0.00 | 52 | 1010.4 |
| 20260507172550 | 11 | 244 | 9.7 | 16.1 | 0.00 | 0.00 | 0.00 | 51 | 1010.4 |
| 20260507172048 | 11 | 329 | 3.2 | 12.9 | 0.00 | 0.00 | 0.00 | 50 | 1010.4 |
| 20260507171543 | 11 | 2 | 4.8 | 8.0 | 0.00 | 0.00 | 0.00 | 50 | 1010.7 |
| 20260507171040 | 11 | 314 | 3.2 | 8.0 | 0.00 | 0.00 | 0.00 | 48 | 1010.6 |
| 20260507170537 | 10 | 242 | 8.0 | 12.9 | 0.00 | 0.00 | 0.00 | 50 | 1010.8 |
| 20260507170034 | 11 | 340 | 3.2 | 11.3 | 0.00 | 0.00 | 0.00 | 50 | 1010.7 |
| 20260507165529 | 10 | 243 | 8.0 | 16.1 | 0.00 | 0.00 | 0.00 | 51 | 1010.8 |
| 20260507165026 | 10 | 301 | 4.8 | 9.7 | 0.00 | 0.00 | 0.00 | 50 | 1011.0 |
| 20260507164522 | 11 | 9 | 11.3 | 12.9 | 0.00 | 0.00 | 0.00 | 48 | 1011.0 |
| 20260507164020 | 11 | 214 | 4.8 | 11.3 | 0.00 | 0.00 | 0.00 | 49 | 1011.0 |
| 20260507163516 | 10 | 242 | 3.2 | 8.0 | 0.00 | 0.00 | 0.00 | 49 | 1011.0 |
| 20260507163015 | 11 | 345 | 8.0 | 8.0 | 0.00 | 0.00 | 0.00 | 52 | 1011.1 |
| 20260507162509 | 10 | 348 | 4.8 | 12.9 | 0.00 | 0.00 | 0.00 | 50 | 1011.1 |
| 20260507162006 | 9 | 341 | 0.0 | 8.0 | 0.00 | 0.00 | 0.00 | 51 | 1011.2 |
| 20260507161503 | 9 | 269 | 0.0 | 9.7 | 0.00 | 0.00 | 0.00 | 54 | 1010.9 |
| 20260507161000 | 9 | 254 | 8.0 | 11.3 | 0.00 | 0.00 | 0.00 | 52 | 1011.1 |
| 20260507160455 | 9 | 306 | 4.8 | 8.0 | 0.00 | 0.00 | 0.00 | 52 | 1011.3 |
| 20260507155951 | 9 | 338 | 4.8 | 9.7 | 0.00 | 0.00 | 0.00 | 51 | 1011.3 |
| 20260507155447 | 10 | 331 | 4.8 | 9.7 | 0.00 | 0.00 | 0.00 | 53 | 1011.1 |
| 20260507154945 | 10 | 356 | 3.2 | 6.4 | 0.00 | 0.00 | 0.00 | 54 | 1011.3 |
| 20260507154441 | 10 | 298 | 3.2 | 9.7 | 0.00 | 0.00 | 0.00 | 50 | 1011.3 |
| 20260507153938 | 10 | 14 | 6.4 | 11.3 | 0.00 | 0.00 | 0.00 | 51 | 1011.4 |
| 20260507153435 | 10 | 278 | 4.8 | 14.5 | 0.00 | 0.00 | 0.00 | 48 | 1011.4 |
| 20260507152931 | 10 | 227 | 16.1 | 25.7 | 0.00 | 0.00 | 0.00 | 49 | 1011.5 |
| 20260507152427 | 10 | 306 | 4.8 | 14.5 | 0.00 | 0.00 | 0.00 | 49 | 1011.4 |
| 20260507151923 | 10 | 355 | 3.2 | 8.0 | 0.00 | 0.00 | 0.00 | 51 | 1011.5 |
| 20260507151420 | 10 | 288 | 3.2 | 20.9 | 0.00 | 0.00 | 0.00 | 54 | 1011.4 |
| 20260507150917 | 10 | 224 | 14.5 | 16.1 | 0.00 | 0.00 | 0.00 | 50 | 1011.6 |
| 20260507150414 | 9 | 64 | 3.2 | 8.0 | 0.00 | 0.00 | 0.00 | 58 | 1011.7 |
| 20260507145910 | 8 | 248 | 8.0 | 17.7 | 0.00 | 0.00 | 0.00 | 57 | 1012.0 |
| 20260507145406 | 8 | 246 | 6.4 | 19.3 | 0.00 | 0.00 | 0.00 | 54 | 1012.1 |
| 20260507144903 | 8 | 230 | 8.0 | 17.7 | 0.00 | 0.00 | 0.00 | 58 | 1011.7 |
| 20260507144401 | 9 | 224 | 6.4 | 19.3 | 0.00 | 0.00 | 0.00 | 61 | 1011.8 |
| 20260507143857 | 8 | 271 | 4.8 | 9.7 | 0.00 | 0.00 | 0.00 | 59 | 1012.2 |
| 20260507143354 | 8 | 258 | 1.6 | 12.9 | 0.00 | 0.00 | 0.00 | 56 | 1012.0 |
| 20260507142851 | 8 | 6 | 8.0 | 11.3 | 0.00 | 0.00 | 0.00 | 54 | 1011.8 |
| 20260507142347 | 8 | 283 | 8.0 | 17.7 | 0.00 | 0.00 | 0.00 | 60 | 1012.0 |
| 20260507141844 | 8 | 157 | 4.8 | 8.0 | 0.00 | 0.00 | 0.00 | 58 | 1012.2 |
| 20260507141340 | 8 | 336 | 3.2 | 8.0 | 0.00 | 0.00 | 0.00 | 58 | 1012.0 |
| 20260507140837 | 8 | 264 | 4.8 | 11.3 | 0.00 | 0.00 | 0.00 | 59 | 1012.1 |
| 20260507140334 | 8 | 332 | 6.4 | 12.9 | 0.00 | 0.00 | 0.00 | 58 | 1012.0 |
| 20260507135832 | 8 | 229 | 3.2 | 12.9 | 0.00 | 0.00 | 0.00 | 56 | 1012.0 |
| 20260507135328 | 8 | 264 | 4.8 | 11.3 | 0.00 | 0.00 | 0.00 | 61 | 1012.3 |
| 20260507134826 | 8 | 2 | 8.0 | 9.7 | 0.00 | 0.00 | 0.00 | 62 | 1012.4 |
| 20260507134322 | 7 | 306 | 4.8 | 6.4 | 0.00 | 0.00 | 0.00 | 64 | 1012.3 |
| 20260507133817 | 7 | 359 | 4.8 | 11.3 | 0.00 | 0.00 | 0.00 | 65 | 1012.4 |
| 20260507133314 | 7 | 297 | 0.0 | 6.4 | 0.00 | 0.00 | 0.00 | 64 | 1012.1 |
| 20260507132812 | 6 | 51 | 4.8 | 9.7 | 0.00 | 0.00 | 0.00 | 62 | 1012.4 |
| 20260507132308 | 6 | 329 | 3.2 | 8.0 | 0.00 | 0.00 | 0.00 | 64 | 1012.4 |
| 20260507131806 | 7 | 253 | 1.6 | 6.4 | 0.00 | 0.00 | 0.00 | 66 | 1012.2 |
| 20260507131302 | 7 | 284 | 1.6 | 6.4 | 0.00 | 0.00 | 0.00 | 67 | 1012.3 |
| 20260507130759 | 6 | 41 | 3.2 | 6.4 | 0.00 | 0.00 | 0.00 | 66 | 1012.2 |
| 20260507130256 | 6 | 299 | 1.6 | 6.4 | 0.00 | 0.00 | 0.00 | 68 | 1012.4 |
| 20260507125755 | 6 | 343 | 1.6 | 6.4 | 0.00 | 0.00 | 0.00 | 66 | 1012.3 |
| 20260507125252 | 6 | 56 | 3.2 | 6.4 | 0.00 | 0.00 | 0.00 | 69 | 1012.3 |
| 20260507124749 | 6 | 15 | 3.2 | 4.8 | 0.00 | 0.00 | 0.00 | 73 | 1012.4 |
| 20260507124246 | 6 | 333 | 1.6 | 4.8 | 0.00 | 0.00 | 0.00 | 71 | 1012.4 |
| 20260507123744 | 5 | 278 | 0.0 | 8.0 | 0.00 | 0.00 | 0.00 | 74 | 1012.6 |
| 20260507123241 | 5 | 301 | 3.2 | 6.4 | 0.00 | 0.00 | 0.00 | 75 | 1012.5 |
| 20260507122737 | 5 | 50 | 4.8 | 6.4 | 0.00 | 0.00 | 0.00 | 76 | 1012.4 |
| 20260507122232 | 5 | 245 | 0.0 | 6.4 | 0.05 | 0.00 | 0.00 | 72 | 1012.5 |
| 20260507121728 | 5 | 319 | 4.8 | 4.8 | 0.05 | 0.00 | 0.00 | 74 | 1012.4 |
| 20260507121224 | 5 | 331 | 4.8 | 6.4 | 0.00 | 0.00 | 0.00 | 76 | 1012.2 |
| 20260507120721 | 5 | 246 | 4.8 | 6.4 | 0.00 | 0.00 | 0.00 | 76 | 1012.5 |
| 20260507120218 | 5 | 260 | 1.6 | 6.4 | 0.00 | 0.00 | 0.00 | 78 | 1012.3 |
| 20260507115714 | 5 | 9 | 4.8 | 6.4 | 0.00 | 0.00 | 0.00 | 82 | 1012.3 |
| 20260507115210 | 4 | 40 | 4.8 | 8.0 | 0.00 | 0.00 | 0.00 | 80 | 1012.3 |
| 20260507114705 | 4 | 35 | 0.0 | 6.4 | 0.00 | 0.00 | 0.00 | 84 | 1012.0 |
| 20260507114203 | 4 | 354 | 0.0 | 9.7 | 0.00 | 0.00 | 0.00 | 85 | 1012.2 |
| 20260507113700 | 3 | 12 | 3.2 | 6.4 | 0.00 | 0.00 | 0.00 | 87 | 1012.3 |
| 20260507113157 | 2 | 294 | 0.0 | 3.2 | 0.00 | 0.00 | 0.00 | 94 | 1012.1 |
| 20260507112655 | 2 | 60 | 3.2 | 4.8 | 0.00 | 0.00 | 0.00 | 96 | 1012.0 |
| 20260507112152 | 2 | 36 | 1.6 | 4.8 | 0.00 | 0.00 | 0.00 | 96 | 1012.1 |
| 20260507111649 | 2 | 103 | 3.2 | 4.8 | 0.00 | 0.00 | 0.00 | 96 | 1012.0 |
| 20260507111145 | 2 | 110 | 3.2 | 6.4 | 0.00 | 0.00 | 0.00 | 96 | 1011.8 |
| 20260507110641 | 1 | 89 | 3.2 | 4.8 | 0.00 | 0.00 | 0.00 | 96 | 1012.1 |
| 20260507110138 | 1 | 110 | 1.6 | 4.8 | 0.00 | 0.00 | 0.00 | 96 | 1012.0 |
| 20260507105635 | 1 | 85 | 1.6 | 4.8 | 0.00 | 0.00 | 0.00 | 96 | 1012.0 |
| 20260507105131 | 1 | 57 | 1.6 | 4.8 | 0.00 | 0.00 | 0.00 | 96 | 1012.2 |
| 20260507104629 | 0 | 88 | 0.0 | 4.8 | 0.00 | 0.00 | 0.00 | 96 | 1011.8 |
| 20260507104125 | 0 | 62 | 3.2 | 4.8 | 0.00 | 0.00 | 0.00 | 96 | 1012.1 |
| 20260507103621 | 0 | 33 | 3.2 | 4.8 | 0.00 | 0.00 | 0.00 | 96 | 1011.8 |
| 20260507103118 | 0 | 65 | 1.6 | 3.2 | 0.00 | 0.00 | 0.00 | 96 | 1011.7 |
| 20260507102615 | 0 | 83 | 0.0 | 4.8 | 0.00 | 0.00 | 0.00 | 96 | 1011.7 |
| 20260507102111 | 0 | 82 | 3.2 | 4.8 | 0.00 | 0.00 | 0.00 | 96 | 1011.7 |
| 20260507101607 | 0 | 58 | 1.6 | 3.2 | 0.00 | 0.00 | 0.00 | 96 | 1011.4 |
| 20260507101103 | 1 | 74 | 3.2 | 3.2 | 0.00 | 0.00 | 0.00 | 96 | 1011.5 |
| 20260507100600 | 1 | 37 | 0.0 | 4.8 | 0.00 | 0.00 | 0.00 | 95 | 1011.5 |
| 20260507100058 | 1 | 110 | 3.2 | 3.2 | 0.00 | 0.00 | 0.00 | 95 | 1011.7 |
| 20260507095556 | 1 | 113 | 1.6 | 3.2 | 0.00 | 0.00 | 0.00 | 95 | 1011.5 |
| 20260507095052 | 1 | 105 | 3.2 | 4.8 | 0.00 | 0.00 | 0.00 | 95 | 1011.5 |
| 20260507094548 | 1 | 358 | 1.6 | 3.2 | 0.00 | 0.00 | 0.00 | 95 | 1011.5 |
| 20260507094046 | 2 | 40 | 0.0 | 3.2 | 0.00 | 0.00 | 0.00 | 95 | 1011.4 |
| 20260507093543 | 2 | 20 | 0.0 | 3.2 | 0.00 | 0.00 | 0.00 | 94 | 1011.6 |
| 20260507093042 | 2 | 4 | 0.0 | 3.2 | 0.00 | 0.00 | 0.00 | 94 | 1011.7 |
| 20260507092537 | 2 | 350 | 0.0 | 3.2 | 0.00 | 0.00 | 0.00 | 94 | 1011.6 |
| 20260507092035 | 2 | 335 | 0.0 | 3.2 | 0.00 | 0.00 | 0.00 | 94 | 1011.6 |
| 20260507091531 | 2 | 4 | 0.0 | 3.2 | 0.00 | 0.00 | 0.00 | 93 | 1011.7 |
| 20260507091027 | 2 | 141 | 0.0 | 1.6 | 0.00 | 0.00 | 0.00 | 93 | 1011.5 |
| 20260507090523 | 2 | 356 | 0.0 | 3.2 | 0.00 | 0.00 | 0.00 | 93 | 1011.6 |
| 20260507090020 | 2 | 348 | 0.0 | 3.2 | 0.00 | 0.00 | 0.00 | 92 | 1011.7 |
| 20260507085517 | 3 | 342 | 1.6 | 3.2 | 0.00 | 0.00 | 0.00 | 92 | 1011.5 |
| 20260507085014 | 3 | 353 | 0.0 | 3.2 | 0.00 | 0.00 | 0.00 | 91 | 1011.5 |
| 20260507084511 | 3 | 353 | 1.6 | 3.2 | 0.00 | 0.00 | 0.00 | 91 | 1011.8 |
| 20260507084008 | 3 | 13 | 1.6 | 3.2 | 0.00 | 0.00 | 0.00 | 89 | 1011.7 |
| 20260507083504 | 3 | 310 | 0.0 | 3.2 | 0.00 | 0.00 | 0.00 | 89 | 1011.6 |
| 20260507083001 | 3 | 347 | 1.6 | 4.8 | 0.00 | 0.00 | 0.00 | 88 | 1011.7 |
| 20260507082457 | 3 | 327 | 3.2 | 6.4 | 0.00 | 0.00 | 0.00 | 88 | 1011.8 |
| 20260507081953 | 3 | 350 | 4.8 | 4.8 | 0.00 | 0.00 | 0.00 | 88 | 1011.6 |
| 20260507081449 | 3 | 278 | 0.0 | 4.8 | 0.00 | 0.00 | 0.00 | 87 | 1011.8 |
| 20260507080947 | 3 | 331 | 3.2 | 4.8 | 0.00 | 0.00 | 0.00 | 87 | 1011.5 |
| 20260507080442 | 3 | 341 | 1.6 | 4.8 | 0.00 | 0.00 | 0.00 | 87 | 1011.7 |
| 20260507075938 | 3 | 263 | 0.0 | 4.8 | 0.00 | 0.00 | 0.00 | 88 | 1011.8 |
| 20260507075435 | 3 | 353 | 0.0 | 3.2 | 0.00 | 0.00 | 0.00 | 88 | 1011.6 |
| 20260507074931 | 3 | 342 | 1.6 | 4.8 | 0.00 | 0.00 | 0.00 | 87 | 1011.6 |
| 20260507074428 | 3 | 326 | 3.2 | 4.8 | 0.00 | 0.00 | 0.00 | 87 | 1011.5 |
| 20260507073926 | 3 | 349 | 3.2 | 4.8 | 0.00 | 0.00 | 0.00 | 88 | 1011.6 |
| 20260507073422 | 3 | 339 | 0.0 | 8.0 | 0.00 | 0.00 | 0.00 | 88 | 1011.3 |
| 20260507072919 | 3 | 3 | 3.2 | 4.8 | 0.00 | 0.00 | 0.00 | 89 | 1011.4 |
| 20260507072417 | 4 | 55 | 0.0 | 3.2 | 0.00 | 0.00 | 0.00 | 89 | 1011.5 |
| 20260507071914 | 4 | 333 | 1.6 | 3.2 | 0.00 | 0.00 | 0.00 | 89 | 1011.5 |
| 20260507071411 | 4 | 252 | 0.0 | 6.4 | 0.00 | 0.00 | 0.00 | 89 | 1011.7 |
| 20260507070907 | 4 | 7 | 1.6 | 6.4 | 0.00 | 0.00 | 0.00 | 90 | 1011.8 |
| 20260507070405 | 4 | 250 | 0.0 | 8.0 | 0.00 | 0.00 | 0.00 | 90 | 1011.8 |
| 20260507065901 | 4 | 5 | 0.0 | 1.6 | 0.00 | 0.00 | 0.00 | 91 | 1011.7 |